Location: Brest
(52.1000°N, 23.7000°E)
Time: 02:13:58
(UTC+02:00)

Genesis I - Visible Passes

Search period start: 12 December 2018 00:00
Search period end: 22 December 2018 00:00
Orbit: 478 x 548 km, 64.5° (Epoch: 10 December)

Date Brightness Start Highest point End Pass type
(mag) Time Alt. Az. Time Alt. Az. Time Alt. Az.
12 Dec 4.4 17:04:02 10° S 17:07:34 29° ESE 17:10:58 11° ENE visible
12 Dec 4.0 18:41:06 10° WSW 18:45:03 49° NW 18:45:54 41° N visible
12 Dec 6.6 20:20:41 10° WNW 20:20:51 11° WNW 20:20:51 11° WNW visible
13 Dec 4.4 16:47:29 10° S 16:51:00 29° ESE 16:54:35 10° ENE visible
13 Dec 4.0 18:24:33 10° WSW 18:28:30 48° NW 18:30:02 32° NNE visible
13 Dec 6.3 20:04:09 10° WNW 20:04:58 13° NW 20:04:58 13° NW visible
14 Dec 4.0 18:08:01 10° WSW 18:11:58 48° NW 18:14:07 24° NNE visible
14 Dec 6.0 19:47:37 10° WNW 19:49:04 15° NW 19:49:04 15° NW visible
15 Dec 4.0 17:51:29 10° WSW 17:55:25 48° NW 17:58:10 19° NNE visible
15 Dec 5.7 19:31:05 10° WNW 19:33:06 17° NNW 19:33:06 17° NNW visible
16 Dec 4.0 17:34:56 10° WSW 17:38:53 48° NW 17:42:11 14° NNE visible
16 Dec 5.5 19:14:33 10° WNW 19:17:07 18° NNW 19:17:07 18° NNW visible
17 Dec 4.0 17:18:24 10° WSW 17:22:20 48° NW 17:26:11 11° NE visible
17 Dec 5.4 18:58:00 10° WNW 19:00:53 18° NNW 19:01:07 18° NNW visible
18 Dec 4.0 17:01:51 10° WSW 17:05:47 47° NW 17:09:48 10° NE visible
18 Dec 5.3 18:41:28 10° WNW 18:44:20 18° NNW 18:45:05 17° N visible
19 Dec 5.3 18:24:55 10° WNW 18:27:48 18° NNW 18:29:02 16° N visible
20 Dec 5.3 18:08:23 10° WNW 18:11:15 18° NNW 18:12:59 14° NNE visible
20 Dec 6.3 19:47:53 10° NNW 19:47:54 10° NNW 19:47:54 10° NNW visible
21 Dec 5.3 17:51:50 10° WNW 17:54:42 18° NNW 17:56:55 13° NNE visible
21 Dec 6.0 19:31:20 10° NNW 19:31:51 12° NNW 19:31:51 12° NNW visible
